Kissimmee, FL

5:09 AM EST on November 15, 2019 (GMT -0500)
Kissimmee Municipal

Weather History for KISM - August, 2019

Change the Weather History Date:

Thursday, August 8, 2019

  Actual Average Record
Temperature  
Mean Temperature 83 °F -  
Max Temperature 93 °F 91 °F 97 °F (1961)
Min Temperature 73 °F 73 °F 67 °F (1967)
Cooling Degree Days 18    
Growing Degree Days 33 (Base 50)    
Moisture  
Dew Point 75 °F    
Average Humidity 79    
Maximum Humidity 97    
Minimum Humidity 56    
Precipitation  
Precipitation 0.00 in - - ()
Sea Level Pressure  
Sea Level Pressure 30.01 in    
Wind  
Wind Speed 5 mph (SW)    
Max Wind Speed 13 mph    
Max Gust Speed 17 mph    
Visibility 10 miles    
Events Thunderstorm    
Averages and records for this station are not official NWS values.
T = Trace of Precipitation, MM = Missing Value Source: NWS Daily Summary

Daily Weather History Graph

Daily Weather History Graph

Search for Another Location

Airport or City:

Astronomy

Aug. 08, 2019 Rise Set
Actual Time 6:51 AM EDT 8:10 PM EDT
Civil Twilight 6:26 AM EDT 8:35 PM EDT
Nautical Twilight 5:56 AM EDT 9:05 PM EDT
Astronomical Twilight 5:25 AM EDT 9:36 PM EDT
Moon 2:44 PM EDT (8/8) 1:09 AM EDT (8/8)
Length of Visible Light 14h 09m
Length of Day
13h 19m
First Quarter, 60% of the Moon is Illuminated
Aug 8
First Quarter
Aug 15
Full
Aug 23
Last Quarter
Aug 30
New
Sep 5
First Quarter

Hourly Weather History & Observations

Time (EDT) Temp. Heat Index Dew Point Humidity Pressure Visibility Wind Dir Wind Speed Gust Speed Precip Events Conditions
12:56 AM 75.0 °F - 73.0 °F 94% 30.04 in 10.0 mi South 4.6 mph - N/A   Clear
1:56 AM 73.9 °F - 73.0 °F 97% 30.01 in 10.0 mi SW 4.6 mph - N/A   Clear
2:56 AM 73.9 °F - 73.0 °F 97% 30.00 in 10.0 mi SW 3.5 mph - N/A   Clear
3:56 AM 73.9 °F - 73.0 °F 97% 30.00 in 10.0 mi Calm Calm - N/A   Clear
4:56 AM 73.9 °F - 73.0 °F 97% 29.99 in 10.0 mi Calm Calm - N/A   Clear
5:56 AM 73.9 °F - 73.0 °F 97% 30.00 in 10.0 mi SW 3.5 mph - N/A   Clear
6:56 AM 75.0 °F - 73.9 °F 96% 30.00 in 10.0 mi SSW 4.6 mph - N/A   Clear
7:56 AM 75.9 °F - 75.0 °F 97% 30.02 in 10.0 mi WSW 4.6 mph - N/A   Clear
8:56 AM 80.1 °F 85.8 °F 77.0 °F 90% 30.03 in 10.0 mi SW 5.8 mph - N/A   Clear
9:56 AM 84.0 °F 94.8 °F 78.1 °F 82% 30.04 in 10.0 mi Variable 4.6 mph - N/A   Partly Cloudy
10:56 AM 87.1 °F 99.8 °F 78.1 °F 74% 30.04 in 10.0 mi SW 8.1 mph - N/A   Mostly Cloudy
11:45 AM 87.8 °F 99.7 °F 77.0 °F 70% 30.02 in 10.0 mi Variable 4.6 mph - N/A   Scattered Clouds
11:56 AM 88.0 °F 100.2 °F 77.0 °F 70% 30.02 in 10.0 mi WSW 8.1 mph - N/A   Mostly Cloudy
12:16 PM 89.6 °F 102.2 °F 77.0 °F 66% 30.02 in 10.0 mi West 5.8 mph - N/A   Scattered Clouds
1:56 PM 91.0 °F 104.2 °F 77.0 °F 63% 30.01 in 10.0 mi NW 12.7 mph - N/A   Clear
2:56 PM 91.9 °F 103.9 °F 75.9 °F 59% 29.99 in 10.0 mi NW 12.7 mph - N/A   Clear
3:56 PM 93.0 °F 104.6 °F 75.0 °F 56% 29.97 in 10.0 mi West 8.1 mph - N/A   Scattered Clouds
5:56 PM 91.9 °F 103.2 °F 75.0 °F 58% 29.97 in 10.0 mi West 9.2 mph - N/A   Clear
6:13 PM 89.6 °F 99.8 °F 75.2 °F 62% 29.98 in 10.0 mi West 11.5 mph - N/A Thunderstorm Partly Cloudy
6:33 PM 87.8 °F 93.8 °F 71.6 °F 58% 29.98 in 10.0 mi NW 11.5 mph - N/A Thunderstorm Thunderstorm
6:56 PM 86.0 °F 91.5 °F 71.1 °F 61% 29.99 in 10.0 mi NE 3.5 mph - N/A Thunderstorm Scattered Clouds
7:08 PM 82.4 °F 88.2 °F 73.4 °F 74% 29.98 in 10.0 mi ESE 8.1 mph 17.3 mph N/A   Partly Cloudy
7:56 PM 80.1 °F 85.1 °F 75.0 °F 85% 30.01 in 10.0 mi SE 6.9 mph - N/A   Mostly Cloudy
8:56 PM 80.1 °F 85.1 °F 75.0 °F 85% 30.02 in 10.0 mi SE 4.6 mph - N/A   Clear
9:56 PM 80.1 °F 85.1 °F 75.0 °F 85% 30.02 in 10.0 mi South 4.6 mph - N/A   Scattered Clouds
10:56 PM 79.0 °F - 73.9 °F 84% 30.03 in 10.0 mi South 4.6 mph - N/A   Clear
11:56 PM 78.1 °F - 75.0 °F 90% 30.01 in 10.0 mi WSW 4.6 mph - N/A   Clear